RRR9733 EGPK-EGQS

Flight info

Callsign RRR9733
Flight time 1h 11m
Altitude 19000
Route GOW N560 NESDI
Aircraft A332/H-SDE3GHIJ2J3J5M1RVWXY/LB2D1

Departure

Time 2026-05-05 18:36
Airport Glasgow Prestwick Airport (EGPK)

Arrival

Time 2026-05-05 19:47
Airport RAF Lossiemouth (EGQS)
Time Latitude Longitude Altitude Speed Heading
2026-05-05 18:21 55.50687 -4.59524 52 ft 0 kts 92°
2026-05-05 18:30 55.50687 -4.59519 50 ft 2 kts 92°
2026-05-05 18:30 55.50685 -4.59467 52 ft 0 kts 92°
2026-05-05 18:31 55.50685 -4.59430 50 ft 16 kts 91°
2026-05-05 18:32 55.50711 -4.59391 56 ft 2 kts 354°
2026-05-05 18:32 55.50732 -4.59439 52 ft 9 kts 303°
2026-05-05 18:32 55.50783 -4.59580 52 ft 17 kts 304°
2026-05-05 18:32 55.50862 -4.59799 51 ft 29 kts 303°
2026-05-05 18:33 55.51010 -4.60245 53 ft 48 kts 301°
2026-05-05 18:33 55.51181 -4.60741 51 ft 46 kts 301°
2026-05-05 18:33 55.51350 -4.61212 50 ft 45 kts 300°
2026-05-05 18:33 55.51497 -4.61515 50 ft 16 kts 345°
2026-05-05 18:34 55.51517 -4.61524 47 ft 0 kts 345°
2026-05-05 18:34 55.51519 -4.61526 48 ft 2 kts 345°
2026-05-05 18:34 55.51596 -4.61499 51 ft 20 kts 44°
2026-05-05 18:35 55.51576 -4.61299 45 ft 18 kts 126°
2026-05-05 18:35 55.51433 -4.60859 52 ft 86 kts 117°
2026-05-05 18:35 55.51365 -4.60633 49 ft 104 kts 121°
2026-05-05 18:35 55.50843 -4.59183 64 ft 170 kts 122°
2026-05-05 18:36 55.50184 -4.57346 757 ft 182 kts 120°
2026-05-05 18:36 55.49450 -4.55254 1236 ft 217 kts 119°
2026-05-05 18:36 55.48618 -4.52841 1738 ft 244 kts 119°
2026-05-05 18:36 55.47726 -4.50254 1475 ft 249 kts 120°
2026-05-05 18:37 55.46834 -4.47679 1142 ft 241 kts 119°
2026-05-05 18:37 55.45990 -4.45212 789 ft 244 kts 118°
2026-05-05 18:37 55.45111 -4.42605 650 ft 242 kts 118°
2026-05-05 18:37 55.44281 -4.40053 799 ft 230 kts 118°
2026-05-05 18:38 55.43547 -4.37755 1867 ft 226 kts 117°
2026-05-05 18:38 55.42767 -4.35306 2694 ft 235 kts 118°
2026-05-05 18:38 55.41926 -4.32736 3358 ft 247 kts 118°
2026-05-05 18:38 55.41043 -4.30058 3631 ft 255 kts 119°
2026-05-05 18:39 55.40157 -4.27373 3805 ft 257 kts 119°
2026-05-05 18:39 55.39249 -4.24620 4051 ft 257 kts 119°
2026-05-05 18:39 55.38345 -4.21869 4661 ft 263 kts 120°
2026-05-05 18:39 55.37415 -4.19037 5391 ft 271 kts 120°
2026-05-05 18:40 55.36470 -4.16163 5519 ft 272 kts 120°
2026-05-05 18:40 55.35519 -4.13281 5635 ft 272 kts 120°
2026-05-05 18:40 55.34579 -4.10443 5754 ft 273 kts 120°
2026-05-05 18:40 55.33624 -4.07562 5877 ft 274 kts 120°
2026-05-05 18:41 55.32665 -4.04663 5983 ft 275 kts 118°
2026-05-05 18:41 55.32085 -4.01493 5999 ft 274 kts 92°
2026-05-05 18:41 55.32376 -3.98218 5997 ft 273 kts 66°
2026-05-05 18:41 55.33450 -3.95520 5997 ft 270 kts 39°
2026-05-05 18:42 55.35089 -3.93999 6001 ft 266 kts 11°
2026-05-05 18:42 55.36915 -3.93972 6003 ft 262 kts 348°
2026-05-05 18:42 55.38716 -3.94581 6002 ft 264 kts 348°
2026-05-05 18:42 55.40532 -3.95190 6001 ft 265 kts 348°
2026-05-05 18:43 55.42340 -3.95787 5998 ft 263 kts 348°
2026-05-05 18:43 55.44115 -3.96368 6000 ft 264 kts 348°
2026-05-05 18:43 55.45925 -3.96958 6004 ft 263 kts 348°
2026-05-05 18:43 55.47724 -3.97542 6003 ft 262 kts 348°
2026-05-05 18:44 55.49226 -3.98031 5999 ft 262 kts 348°
2026-05-05 18:44 55.51025 -3.98618 6004 ft 262 kts 348°
2026-05-05 18:44 55.52825 -3.99206 6011 ft 263 kts 348°
2026-05-05 18:44 55.54620 -3.99793 6000 ft 262 kts 348°
2026-05-05 18:45 55.56402 -4.00377 6001 ft 263 kts 348°
2026-05-05 18:45 55.58204 -4.00968 6005 ft 263 kts 348°
2026-05-05 18:45 55.59999 -4.01555 6009 ft 261 kts 348°
2026-05-05 18:45 55.61784 -4.02141 6009 ft 261 kts 348°
2026-05-05 18:46 55.63565 -4.02728 6009 ft 260 kts 348°
2026-05-05 18:46 55.65348 -4.03345 6009 ft 261 kts 343°
2026-05-05 18:46 55.67039 -4.04463 6012 ft 259 kts 338°
2026-05-05 18:46 55.68728 -4.05656 6144 ft 264 kts 337°
2026-05-05 18:47 55.70445 -4.06867 6896 ft 263 kts 337°
2026-05-05 18:47 55.72134 -4.08057 7888 ft 261 kts 336°
2026-05-05 18:47 55.73837 -4.09262 8712 ft 266 kts 336°
2026-05-05 18:47 55.75576 -4.10493 9585 ft 270 kts 336°
2026-05-05 18:48 55.77335 -4.11741 10395 ft 274 kts 336°
2026-05-05 18:48 55.79114 -4.13003 11196 ft 277 kts 336°
2026-05-05 18:48 55.80915 -4.14283 12000 ft 280 kts 335°
2026-05-05 18:48 55.82742 -4.15581 12800 ft 284 kts 335°
2026-05-05 18:49 55.84590 -4.16895 13620 ft 288 kts 335°
2026-05-05 18:49 55.86466 -4.18232 14353 ft 292 kts 335°
2026-05-05 18:49 55.88359 -4.19582 15094 ft 295 kts 335°
2026-05-05 18:49 55.90284 -4.20957 15827 ft 299 kts 335°
2026-05-05 18:50 55.92228 -4.22347 16558 ft 303 kts 335°
2026-05-05 18:50 55.94196 -4.23755 17308 ft 306 kts 335°
2026-05-05 18:50 55.96190 -4.25184 18038 ft 310 kts 335°
2026-05-05 18:50 55.98205 -4.26630 18715 ft 314 kts 335°
2026-05-05 18:51 56.00246 -4.28095 19360 ft 318 kts 335°
2026-05-05 18:51 56.02322 -4.29588 19681 ft 323 kts 335°
2026-05-05 18:51 56.04374 -4.31063 19812 ft 321 kts 335°
2026-05-05 18:51 56.06451 -4.32559 19938 ft 322 kts 334°
2026-05-05 18:52 56.08528 -4.34058 20042 ft 322 kts 334°
2026-05-05 18:52 56.10610 -4.35562 20097 ft 323 kts 334°
2026-05-05 18:52 56.12694 -4.37069 20100 ft 323 kts 334°
2026-05-05 18:52 56.14775 -4.38573 20099 ft 322 kts 335°
2026-05-05 18:53 56.16985 -4.39424 20101 ft 330 kts 356°
2026-05-05 18:53 56.19276 -4.38775 20096 ft 338 kts 12°
2026-05-05 18:53 56.21529 -4.37549 20096 ft 338 kts 12°
2026-05-05 18:53 56.23795 -4.36448 20101 ft 337 kts
2026-05-05 18:54 56.26089 -4.35588 20101 ft 336 kts
2026-05-05 18:54 56.28393 -4.34910 20099 ft 334 kts
2026-05-05 18:54 56.30700 -4.34327 20098 ft 334 kts
2026-05-05 18:54 56.32999 -4.33781 20101 ft 334 kts
2026-05-05 18:55 56.35310 -4.33245 20097 ft 335 kts
2026-05-05 18:55 56.37588 -4.32713 20099 ft 333 kts
2026-05-05 18:55 56.39888 -4.32171 20099 ft 334 kts
2026-05-05 18:55 56.42195 -4.31623 20105 ft 334 kts
2026-05-05 18:56 56.44503 -4.31074 20102 ft 334 kts
2026-05-05 18:56 56.46811 -4.30525 20101 ft 334 kts
2026-05-05 18:56 56.49111 -4.29978 20094 ft 334 kts
2026-05-05 18:56 56.51418 -4.29428 20094 ft 334 kts
2026-05-05 18:57 56.53721 -4.28875 20099 ft 334 kts
2026-05-05 18:57 56.56030 -4.28323 20099 ft 334 kts
2026-05-05 18:57 56.58333 -4.27775 20103 ft 334 kts
2026-05-05 18:57 56.60642 -4.27224 20108 ft 334 kts
2026-05-05 18:58 56.62944 -4.26667 20100 ft 334 kts
2026-05-05 18:58 56.65251 -4.26108 20102 ft 334 kts
2026-05-05 18:58 56.67553 -4.25554 20104 ft 333 kts
2026-05-05 18:58 56.69855 -4.25002 20100 ft 334 kts
2026-05-05 18:59 56.72152 -4.24448 20103 ft 333 kts
2026-05-05 18:59 56.74457 -4.23892 20103 ft 333 kts
2026-05-05 18:59 56.76756 -4.23336 20102 ft 333 kts
2026-05-05 18:59 56.79056 -4.22778 20102 ft 333 kts
2026-05-05 19:00 56.81353 -4.22221 20107 ft 333 kts
2026-05-05 19:00 56.83625 -4.21669 20107 ft 333 kts
2026-05-05 19:00 56.85920 -4.21111 20106 ft 332 kts
2026-05-05 19:00 56.88211 -4.20554 20106 ft 333 kts
2026-05-05 19:01 56.90517 -4.19992 20106 ft 333 kts
2026-05-05 19:01 56.92815 -4.19431 20108 ft 333 kts
2026-05-05 19:01 56.95134 -4.18865 20106 ft 332 kts
2026-05-05 19:01 56.97405 -4.18310 20106 ft 333 kts
2026-05-05 19:02 56.99700 -4.17751 20108 ft 332 kts
2026-05-05 19:02 57.01986 -4.17192 20110 ft 332 kts
2026-05-05 19:02 57.04277 -4.16628 20112 ft 332 kts
2026-05-05 19:02 57.06558 -4.16069 20116 ft 332 kts
2026-05-05 19:03 57.08862 -4.15502 20116 ft 333 kts
2026-05-05 19:03 57.10411 -4.15119 20115 ft 332 kts
2026-05-05 19:03 57.12696 -4.14555 20107 ft 331 kts
2026-05-05 19:03 57.14978 -4.13991 20110 ft 331 kts
2026-05-05 19:04 57.17266 -4.13426 20120 ft 332 kts
2026-05-05 19:04 57.19554 -4.12860 20137 ft 332 kts
2026-05-05 19:04 57.21837 -4.12293 20126 ft 331 kts
2026-05-05 19:04 57.24129 -4.11725 20127 ft 332 kts
2026-05-05 19:05 57.26426 -4.11151 20122 ft 332 kts
2026-05-05 19:05 57.28691 -4.10588 20119 ft 331 kts
2026-05-05 19:05 57.30970 -4.10029 20007 ft 330 kts
2026-05-05 19:05 57.33243 -4.09479 19742 ft 328 kts
2026-05-05 19:06 57.35512 -4.08931 19397 ft 327 kts
2026-05-05 19:06 57.37768 -4.08391 19036 ft 325 kts
2026-05-05 19:06 57.40002 -4.07861 18694 ft 323 kts
2026-05-05 19:06 57.42225 -4.07334 18341 ft 321 kts
2026-05-05 19:07 57.44438 -4.06812 17970 ft 319 kts
2026-05-05 19:07 57.46632 -4.06299 17581 ft 316 kts
2026-05-05 19:07 57.48803 -4.05797 17202 ft 314 kts
2026-05-05 19:07 57.50972 -4.05299 16815 ft 312 kts
2026-05-05 19:08 57.53113 -4.04812 16441 ft 310 kts
2026-05-05 19:08 57.55245 -4.04332 16065 ft 307 kts
2026-05-05 19:08 57.57361 -4.03860 15700 ft 305 kts
2026-05-05 19:08 57.59458 -4.03398 15325 ft 303 kts
2026-05-05 19:09 57.61551 -4.02941 14961 ft 300 kts
2026-05-05 19:09 57.63622 -4.02494 14585 ft 298 kts
2026-05-05 19:09 57.65672 -4.02055 14211 ft 296 kts
2026-05-05 19:09 57.67711 -4.01626 13815 ft 294 kts
2026-05-05 19:10 57.69739 -4.01208 13391 ft 291 kts
2026-05-05 19:10 57.71753 -4.00796 12968 ft 289 kts
2026-05-05 19:10 57.73723 -4.00435 12548 ft 285 kts 356°
2026-05-05 19:10 57.75622 -4.01140 12077 ft 276 kts 331°
2026-05-05 19:11 57.77098 -4.03323 11627 ft 270 kts 306°
2026-05-05 19:11 57.77825 -4.06487 11341 ft 264 kts 278°
2026-05-05 19:11 57.77642 -4.09976 11219 ft 277 kts 252°
2026-05-05 19:11 57.76594 -4.13006 11126 ft 283 kts 226°
2026-05-05 19:12 57.74881 -4.14872 11138 ft 292 kts 201°
2026-05-05 19:12 57.72914 -4.15884 11129 ft 294 kts 198°
2026-05-05 19:12 57.70936 -4.16865 11140 ft 294 kts 198°
2026-05-05 19:12 57.68962 -4.17849 11134 ft 293 kts 198°
2026-05-05 19:13 57.66983 -4.18835 11130 ft 293 kts 198°
2026-05-05 19:13 57.64982 -4.19624 11126 ft 296 kts 191°
2026-05-05 19:13 57.62927 -4.19998 11129 ft 297 kts 188°
2026-05-05 19:13 57.60873 -4.20340 11138 ft 296 kts 188°
2026-05-05 19:14 57.58817 -4.20681 11125 ft 297 kts 188°
2026-05-05 19:14 57.56762 -4.21024 11122 ft 297 kts 188°
2026-05-05 19:14 57.54702 -4.21366 11135 ft 297 kts 188°
2026-05-05 19:14 57.52642 -4.21707 11125 ft 297 kts 188°
2026-05-05 19:15 57.50586 -4.22050 11130 ft 297 kts 188°
2026-05-05 19:15 57.48529 -4.22391 11130 ft 297 kts 188°
2026-05-05 19:15 57.46472 -4.22735 11128 ft 297 kts 188°
2026-05-05 19:15 57.44414 -4.23077 11128 ft 297 kts 188°
2026-05-05 19:16 57.42359 -4.23420 11129 ft 297 kts 188°
2026-05-05 19:16 57.40299 -4.23667 11119 ft 298 kts 179°
2026-05-05 19:16 57.38283 -4.22668 11131 ft 305 kts 154°
2026-05-05 19:16 57.36640 -4.20176 11107 ft 308 kts 128°
2026-05-05 19:17 57.35674 -4.16658 10977 ft 307 kts 103°
2026-05-05 19:17 57.35556 -4.12764 10630 ft 302 kts 77°
2026-05-05 19:17 57.36291 -4.09251 10221 ft 293 kts 52°
2026-05-05 19:17 57.37618 -4.06434 9750 ft 288 kts 40°
2026-05-05 19:18 57.39061 -4.03883 9297 ft 285 kts 41°
2026-05-05 19:18 57.40443 -4.01279 8854 ft 282 kts 44°
2026-05-05 19:18 57.41744 -3.98567 8412 ft 280 kts 46°
2026-05-05 19:18 57.42980 -3.95794 7982 ft 277 kts 48°
2026-05-05 19:19 57.44175 -3.93007 7520 ft 274 kts 49°
2026-05-05 19:19 57.45346 -3.90229 7079 ft 271 kts 50°
2026-05-05 19:19 57.45735 -3.89303 6939 ft 270 kts 49°
2026-05-05 19:20 57.46036 -3.88587 6814 ft 269 kts 50°
2026-05-05 19:20 57.47029 -3.86224 6442 ft 266 kts 50°
2026-05-05 19:20 57.48190 -3.83461 6232 ft 262 kts 50°
2026-05-05 19:21 57.49331 -3.80749 6132 ft 266 kts 50°
2026-05-05 19:21 57.50462 -3.78053 6128 ft 264 kts 50°
2026-05-05 19:21 57.51595 -3.75352 6129 ft 265 kts 50°
2026-05-05 19:21 57.52729 -3.72649 6128 ft 265 kts 50°
2026-05-05 19:22 57.53862 -3.69945 6132 ft 265 kts 50°
2026-05-05 19:22 57.54994 -3.67237 6129 ft 265 kts 50°
2026-05-05 19:22 57.56127 -3.64527 6127 ft 265 kts 50°
2026-05-05 19:22 57.57261 -3.61811 6130 ft 265 kts 50°
2026-05-05 19:23 57.58391 -3.59097 6097 ft 264 kts 50°
2026-05-05 19:23 57.59515 -3.56405 5951 ft 258 kts 50°
2026-05-05 19:23 57.60584 -3.53847 5813 ft 246 kts 50°
2026-05-05 19:23 57.61615 -3.51356 5649 ft 234 kts 50°
2026-05-05 19:24 57.62606 -3.48959 5225 ft 234 kts 50°
2026-05-05 19:24 57.63628 -3.46502 4524 ft 244 kts 49°
2026-05-05 19:24 57.64841 -3.44170 3566 ft 259 kts 42°
2026-05-05 19:24 57.66197 -3.41781 2679 ft 272 kts 42°
2026-05-05 19:25 57.67552 -3.39381 2068 ft 266 kts 43°
2026-05-05 19:25 57.68923 -3.36857 665 ft 279 kts 45°
2026-05-05 19:25 57.70253 -3.34497 165 ft 250 kts 44°
2026-05-05 19:25 57.71441 -3.32418 141 ft 213 kts 45°
2026-05-05 19:26 57.72560 -3.30473 579 ft 233 kts 44°
2026-05-05 19:26 57.73731 -3.28428 1224 ft 248 kts 42°
2026-05-05 19:26 57.75016 -3.26179 1906 ft 257 kts 42°
2026-05-05 19:26 57.76417 -3.24049 2566 ft 263 kts 25°
2026-05-05 19:27 57.78212 -3.23665 3198 ft 271 kts 348°
2026-05-05 19:27 57.79857 -3.25317 3901 ft 278 kts 319°
2026-05-05 19:27 57.80981 -3.28280 4694 ft 281 kts 300°
2026-05-05 19:27 57.81908 -3.31518 5501 ft 283 kts 298°
2026-05-05 19:28 57.82818 -3.34810 6297 ft 284 kts 297°
2026-05-05 19:28 57.83738 -3.38256 6301 ft 313 kts 296°
2026-05-05 19:28 57.84734 -3.42009 6948 ft 324 kts 297°
2026-05-05 19:28 57.85776 -3.45834 7162 ft 334 kts 297°
2026-05-05 19:29 57.86855 -3.49686 7139 ft 331 kts 298°
2026-05-05 19:29 57.87942 -3.53463 7060 ft 322 kts 298°
2026-05-05 19:29 57.89004 -3.57076 6927 ft 307 kts 297°
2026-05-05 19:29 57.89582 -3.60810 6765 ft 293 kts 274°
2026-05-05 19:30 57.89267 -3.64471 6615 ft 279 kts 248°
2026-05-05 19:30 57.88196 -3.67397 6408 ft 266 kts 231°
2026-05-05 19:30 57.87333 -3.70300 6128 ft 256 kts 258°
2026-05-05 19:30 57.87327 -3.73679 6056 ft 261 kts 286°
2026-05-05 19:31 57.88179 -3.76624 6053 ft 258 kts 314°
2026-05-05 19:31 57.89678 -3.78430 6054 ft 259 kts 342°
2026-05-05 19:31 57.91475 -3.78662 6059 ft 263 kts
2026-05-05 19:31 57.93139 -3.77231 6058 ft 267 kts 38°
2026-05-05 19:32 57.94397 -3.74641 6057 ft 269 kts 49°
2026-05-05 19:32 57.95587 -3.71916 6058 ft 270 kts 49°
2026-05-05 19:32 57.96778 -3.69185 6060 ft 269 kts 49°
2026-05-05 19:32 57.97946 -3.66499 6059 ft 270 kts 49°
2026-05-05 19:33 57.99152 -3.63720 6056 ft 270 kts 49°
2026-05-05 19:33 58.00345 -3.60970 6059 ft 271 kts 49°
2026-05-05 19:33 58.01535 -3.58224 6057 ft 270 kts 49°
2026-05-05 19:33 58.02728 -3.55467 6060 ft 271 kts 49°
2026-05-05 19:34 58.03917 -3.52710 6061 ft 271 kts 49°
2026-05-05 19:34 58.05107 -3.49939 6054 ft 272 kts 49°
2026-05-05 19:34 58.06299 -3.47159 6059 ft 272 kts 49°
2026-05-05 19:35 58.08671 -3.41606 6060 ft 271 kts 49°
2026-05-05 19:35 58.09856 -3.38830 6057 ft 271 kts 49°
2026-05-05 19:35 58.11039 -3.36055 6055 ft 271 kts 49°
2026-05-05 19:35 58.12220 -3.33282 6057 ft 270 kts 49°
2026-05-05 19:36 58.13396 -3.30515 6056 ft 270 kts 49°
2026-05-05 19:36 58.14573 -3.27742 6058 ft 270 kts 49°
2026-05-05 19:36 58.15734 -3.25006 6056 ft 270 kts 49°
2026-05-05 19:36 58.16795 -3.22078 6053 ft 273 kts 65°
2026-05-05 19:37 58.17137 -3.18547 6056 ft 276 kts 93°
2026-05-05 19:37 58.16599 -3.15073 6057 ft 278 kts 120°
2026-05-05 19:37 58.15343 -3.12317 6057 ft 278 kts 138°
2026-05-05 19:37 58.14381 -3.10642 6053 ft 278 kts 138°
2026-05-05 19:38 58.12959 -3.08167 6052 ft 277 kts 138°
2026-05-05 19:38 58.11074 -3.04892 6056 ft 278 kts 138°
2026-05-05 19:38 58.10110 -3.03219 6054 ft 278 kts 138°
2026-05-05 19:38 58.08687 -3.00752 6053 ft 278 kts 138°
2026-05-05 19:39 58.07273 -2.98305 6052 ft 278 kts 138°
2026-05-05 19:39 58.05846 -2.95839 6053 ft 278 kts 138°
2026-05-05 19:39 58.04400 -2.93348 6053 ft 278 kts 138°
2026-05-05 19:39 58.02987 -2.90920 6055 ft 278 kts 138°
2026-05-05 19:40 58.01556 -2.88466 6054 ft 278 kts 138°
2026-05-05 19:40 58.00122 -2.86027 6050 ft 277 kts 141°
2026-05-05 19:40 57.98439 -2.84345 6051 ft 276 kts 168°
2026-05-05 19:40 57.96542 -2.84279 6051 ft 272 kts 196°
2026-05-05 19:41 57.94878 -2.85833 6052 ft 267 kts 224°
2026-05-05 19:41 57.93647 -2.88457 6050 ft 266 kts 233°
2026-05-05 19:41 57.92491 -2.91098 6011 ft 262 kts 232°
2026-05-05 19:41 57.91334 -2.93671 5947 ft 252 kts 232°
2026-05-05 19:42 57.90221 -2.96088 5812 ft 238 kts 231°
2026-05-05 19:42 57.89155 -2.98371 5677 ft 226 kts 231°
2026-05-05 19:42 57.88124 -3.00566 5412 ft 223 kts 231°
2026-05-05 19:42 57.87096 -3.02757 5058 ft 224 kts 231°
2026-05-05 19:43 57.86042 -3.05004 4441 ft 235 kts 231°
2026-05-05 19:43 57.84950 -3.07398 3761 ft 246 kts 233°
2026-05-05 19:43 57.83877 -3.09842 3488 ft 239 kts 230°
2026-05-05 19:43 57.82749 -3.12072 3189 ft 231 kts 226°
2026-05-05 19:44 57.81615 -3.14144 2893 ft 224 kts 225°
2026-05-05 19:44 57.80515 -3.16129 2609 ft 215 kts 225°
2026-05-05 19:44 57.79450 -3.18044 2286 ft 209 kts 225°
2026-05-05 19:44 57.78415 -3.19902 1989 ft 203 kts 225°
2026-05-05 19:45 57.77410 -3.21706 1773 ft 195 kts 225°
2026-05-05 19:45 57.76465 -3.23401 1457 ft 182 kts 225°
2026-05-05 19:45 57.75576 -3.24995 1211 ft 171 kts 225°
2026-05-05 19:45 57.74740 -3.26494 969 ft 162 kts 225°
2026-05-05 19:46 57.73908 -3.27985 734 ft 169 kts 224°
2026-05-05 19:46 57.73087 -3.29454 488 ft 160 kts 223°
2026-05-05 19:46 57.72261 -3.30933 275 ft 162 kts 222°
2026-05-05 19:46 57.71464 -3.32359 63 ft 161 kts 222°
2026-05-05 19:47 57.70816 -3.33518 45 ft 140 kts 224°
2026-05-05 19:47 57.70397 -3.34267 42 ft 51 kts 224°
2026-05-05 19:47 57.70271 -3.34491 42 ft 36 kts 224°
2026-05-05 19:47 57.70097 -3.34804 39 ft 32 kts 224°
2026-05-05 19:48 57.69934 -3.35096 34 ft 33 kts 224°
2026-05-05 19:48 57.69816 -3.35215 34 ft 0 kts 224°
2026-05-05 19:49 57.69803 -3.35325 34 ft 14 kts 295°
2026-05-05 19:49 57.69878 -3.35463 35 ft 15 kts 324°
2026-05-05 19:50 57.69974 -3.35461 36 ft 14 kts 28°
2026-05-05 19:50 57.70052 -3.35352 37 ft 14 kts 38°
2026-05-05 19:50 57.70133 -3.35233 38 ft 17 kts 38°
2026-05-05 19:50 57.70246 -3.35064 40 ft 24 kts 38°
2026-05-05 19:51 57.70398 -3.34842 43 ft 31 kts 38°
2026-05-05 19:51 57.70567 -3.34596 47 ft 25 kts 36°
2026-05-05 19:51 57.70706 -3.34395 48 ft 25 kts 39°
2026-05-05 19:51 57.70826 -3.34162 48 ft 25 kts 48°
2026-05-05 19:52 57.70940 -3.33913 47 ft 26 kts 50°
2026-05-05 19:52 57.71057 -3.33730 46 ft 14 kts 350°
2026-05-05 19:52 57.71141 -3.33763 45 ft 12 kts 33°
2026-05-05 19:52 57.71205 -3.33643 44 ft 14 kts 48°
2026-05-05 19:53 57.71274 -3.33495 43 ft 16 kts 49°
2026-05-05 19:53 57.71353 -3.33326 42 ft 18 kts 50°
2026-05-05 19:53 57.71400 -3.33226 41 ft 8 kts 48°
2026-05-05 19:53 57.71436 -3.33149 40 ft 0 kts 48°
2026-05-05 19:54 57.71432 -3.33157 40 ft 2 kts 48°
2026-05-05 19:54 57.71416 -3.33191 41 ft 5 kts 48°
2026-05-05 19:54 57.71400 -3.33246 41 ft 5 kts 131°
2026-05-05 19:54 57.71423 -3.33290 39 ft 5 kts 147°
2026-05-05 19:55 57.71437 -3.33306 36 ft 2 kts 142°
2026-05-05 19:55 57.71431 -3.33298 38 ft 0 kts 141°
2026-05-05 19:55 57.71430 -3.33295 38 ft 0 kts 141°